FW3266 Weather Reports


Display with metric or nautical units.
time (UTC)temp
F
wind
direction
speed
MPH
gust
MPH
rain 1hr
in
rain 24hr
in
rain mn
in
humidity
%
barometer
mb
20260904213933 70 176 2.0 4.0 0.00 0.00 0.00 88 1009.4
20260904213431 70 169 0.0 4.0 0.00 0.00 0.00 88 1009.4
20260904212930 70 160 0.0 4.0 0.00 0.00 0.00 88 1009.5
20260904212429 70 192 1.0 4.0 0.00 0.00 0.00 88 1009.4
20260904212149 71 202 0.0 4.0 0.00 0.00 0.00 87 1009.4
20260904211420 71 141 2.0 4.0 0.00 0.00 0.00 87 1009.4
20260904210918 71 195 2.0 4.0 0.00 0.00 0.00 87 1009.4
20260904210418 71 154 1.0 3.0 0.00 0.00 0.00 87 1009.5
20260904205908 71 156 1.0 3.0 0.00 0.00 0.00 87 1009.5
20260904205408 71 172 1.0 3.0 0.00 0.00 0.00 87 1009.4
20260904204907 71 148 1.0 4.0 0.00 0.00 0.00 87 1009.5
20260904204406 71 176 1.0 4.0 0.00 0.00 0.00 87 1009.4
20260904203907 71 155 1.0 4.0 0.00 0.00 0.00 87 1009.5
20260904203404 71 179 2.0 4.0 0.00 0.00 0.00 87 1009.4
20260904202904 71 140 0.0 5.0 0.00 0.00 0.00 87 1009.4
20260904202402 71 181 1.0 5.0 0.00 0.00 0.00 87 1009.6
20260904201902 71 141 0.0 3.0 0.00 0.00 0.00 87 1009.5
20260904201611 71 139 1.0 5.0 0.00 0.00 0.00 88 1009.5
20260904201455 71 141 2.0 5.0 0.00 0.00 0.00 87 1009.5
20260904200358 70 191 1.0 4.0 0.00 0.00 0.00 88 1009.4
20260904195857 70 98 1.0 3.0 0.00 0.00 0.00 88 1009.4
20260904195618 70 115 0.0 5.0 0.00 0.00 0.00 87 1009.4
20260904194849 70 193 2.0 5.0 0.00 0.00 0.00 87 1009.5
20260904194348 71 180 1.0 4.0 0.00 0.00 0.00 87 1009.4
20260904194117 71 125 2.0 4.0 0.00 0.00 0.00 87 1009.4
20260904193347 71 138 2.0 4.0 0.00 0.00 0.00 87 1009.4
20260904192846 71 188 1.0 3.0 0.00 0.00 0.00 87 1009.4
20260904192343 71 170 1.0 4.0 0.00 0.00 0.00 87 1009.4
20260904191842 71 210 1.0 4.0 0.00 0.00 0.00 87 1009.4
20260904191342 71 227 2.0 4.0 0.00 0.00 0.00 87 1009.5
20260904190842 71 211 2.0 3.0 0.00 0.00 0.00 87 1009.6
20260904190340 71 142 2.0 3.0 0.00 0.00 0.00 87 1009.6
20260904185839 71 143 1.0 3.0 0.00 0.00 0.00 87 1009.7
20260904185339 71 143 1.0 3.0 0.00 0.00 0.00 87 1009.6
20260904184838 71 188 0.0 3.0 0.00 0.00 0.00 87 1009.6
20260904184336 71 207 1.0 3.0 0.00 0.00 0.00 87 1009.7
20260904183837 71 180 1.0 6.0 0.00 0.00 0.00 87 1009.7
20260904183336 71 136 1.0 6.0 0.00 0.00 0.00 87 1009.8
20260904182834 71 87 2.0 4.0 0.00 0.00 0.00 86 1009.8
20260904182326 71 138 2.0 3.0 0.00 0.00 0.00 87 1009.9
20260904181824 71 153 0.0 5.0 0.00 0.00 0.00 87 1010.0
20260904181323 71 161 2.0 5.0 0.00 0.00 0.00 87 1009.9
20260904181043 71 202 0.0 5.0 0.00 0.00 0.00 87 1010.0
20260904180321 71 193 2.0 5.0 0.00 0.00 0.00 87 1009.9
20260904175825 71 174 1.0 5.0 0.00 0.00 0.00 87 1010.0
20260904175319 70 191 1.0 5.0 0.00 0.00 0.00 88 1009.9
20260904175037 70 150 1.0 7.0 0.00 0.00 0.00 88 1009.9
20260904174311 70 117 2.0 7.0 0.00 0.00 0.00 88 1010.0
20260904174043 70 209 2.0 4.0 0.00 0.00 0.00 88 1009.9
20260904173311 70 175 1.0 4.0 0.00 0.00 0.00 87 1010.0
20260904173031 70 168 2.0 6.0 0.00 0.00 0.00 87 1010.1
20260904172307 70 165 2.0 6.0 0.00 0.00 0.00 87 1010.2
20260904171808 70 172 0.0 4.0 0.00 0.00 0.00 87 1010.1
20260904171309 70 255 1.0 4.0 0.00 0.00 0.00 87 1010.1
20260904171032 70 168 1.0 3.0 0.00 0.00 0.00 87 1010.1
20260904170301 70 155 1.0 2.0 0.00 0.00 0.00 87 1010.1
20260904165758 70 165 1.0 3.0 0.00 0.00 0.00 87 1010.2
20260904165257 70 180 1.0 3.0 0.00 0.00 0.00 87 1010.2
20260904164757 70 84 1.0 4.0 0.00 0.00 0.00 88 1010.3
20260904164256 70 167 1.0 4.0 0.00 0.00 0.00 88 1010.3
20260904163755 70 49 1.0 3.0 0.00 0.00 0.00 88 1010.4
20260904163256 70 359 2.0 3.0 0.00 0.00 0.00 88 1010.4
20260904162755 70 119 1.0 5.0 0.00 0.00 0.00 88 1010.4
20260904162247 70 37 2.0 5.0 0.00 0.00 0.00 88 1010.4
20260904161746 70 56 1.0 4.0 0.00 0.00 0.00 89 1010.5
20260904161245 70 51 1.0 3.0 0.00 0.00 0.00 89 1010.6
20260904160744 70 51 1.0 4.0 0.00 0.00 0.00 89 1010.6
20260904160242 70 51 1.0 7.0 0.00 0.00 0.00 90 1010.6
20260904155742 69 61 4.0 9.0 0.00 0.00 0.00 89 1010.6
20260904155240 70 50 4.0 9.0 0.00 0.00 0.00 90 1010.6
20260904154739 70 51 2.0 6.0 0.00 0.00 0.00 91 1010.6
20260904154238 70 58 3.0 6.0 0.00 0.00 0.00 91 1010.7
20260904154002 70 49 4.0 6.0 0.00 0.00 0.00 91 1010.8
20260904153503 69 44 0.0 4.0 0.00 0.00 0.00 92 1010.8
20260904152736 70 44 1.0 5.0 0.00 0.00 0.00 92 1010.6
20260904152236 69 58 1.0 5.0 0.00 0.00 0.00 92 1010.6
20260904151736 69 61 3.0 5.0 0.00 0.00 0.00 93 1010.7
20260904151233 69 56 2.0 6.0 0.00 0.00 0.00 93 1010.8
20260904150732 69 13 3.0 6.0 0.00 0.00 0.00 93 1010.8
20260904150231 69 56 3.0 6.0 0.00 0.01 0.00 93 1011.0
20260904145732 69 49 2.0 6.0 0.00 0.01 0.00 94 1010.9
20260904145232 69 57 3.0 8.0 0.00 0.01 0.00 94 1011.0
20260904144730 68 65 3.0 8.0 0.00 0.01 0.00 94 1011.1
20260904144229 68 64 2.0 6.0 0.00 0.01 0.00 94 1011.1
20260904143721 68 72 2.0 7.0 0.00 0.01 0.00 94 1011.1
20260904143443 67 55 2.0 7.0 0.00 0.01 0.00 94 1011.1
20260904142721 67 61 2.0 4.0 0.00 0.01 0.00 94 1011.2
20260904142220 67 63 3.0 4.0 0.00 0.01 0.00 94 1011.2
20260904141718 68 65 2.0 6.0 0.00 0.01 0.00 94 1011.1
20260904141219 68 57 2.0 6.0 0.00 0.01 0.00 94 1011.1
20260904140716 68 65 2.0 4.0 0.00 0.01 0.00 94 1011.1
20260904140441 68 8 2.0 4.0 0.00 0.01 0.00 95 1011.0
20260904135715 67 25 1.0 3.0 0.00 0.01 0.00 94 1011.1
20260904135214 67 67 1.0 6.0 0.00 0.01 0.00 95 1011.1
20260904134715 67 65 2.0 6.0 0.00 0.01 0.00 94 1011.2
20260904134451 67 49 2.0 6.0 0.00 0.01 0.00 94 1011.2
20260904134158 67 43 3.0 6.0 0.00 0.01 0.00 94 1011.2
20260904133207 67 84 2.0 6.0 0.00 0.01 0.00 94 1011.1
20260904132704 66 58 1.0 4.0 0.00 0.01 0.00 94 1011.1
20260904132203 66 51 2.0 4.0 0.00 0.01 0.00 95 1011.2
20260904131703 66 63 1.0 5.0 0.00 0.02 0.00 95 1011.3
20260904131203 66 49 3.0 5.0 0.00 0.02 0.00 95 1011.3
20260904130702 66 63 2.0 5.0 0.00 0.03 0.00 95 1011.3
20260904130201 66 70 3.0 5.0 0.00 0.03 0.00 95 1011.4
20260904125700 66 27 2.0 5.0 0.00 0.03 0.00 95 1011.4
20260904125153 66 65 2.0 5.0 0.00 0.03 0.00 95 1011.4
20260904124913 66 57 2.0 5.0 0.00 0.04 0.00 95 1011.3
20260904124151 66 70 2.0 5.0 0.00 0.04 0.00 94 1011.3
20260904123648 66 69 3.0 5.0 0.00 0.04 0.00 94 1011.3
20260904123148 66 45 2.0 5.0 0.00 0.04 0.00 94 1011.3
20260904122647 66 63 2.0 4.0 0.00 0.04 0.00 95 1011.3
20260904122148 66 53 2.0 3.0 0.00 0.04 0.00 94 1011.3
20260904121639 66 50 2.0 4.0 0.00 0.04 0.00 94 1011.3
20260904121137 66 53 2.0 4.0 0.00 0.04 0.00 94 1011.3
20260904120906 66 53 2.0 4.0 0.00 0.05 0.00 94 1011.3
20260904120138 66 53 0.0 4.0 0.00 0.05 0.00 94 1011.3
20260904115859 67 53 2.0 4.0 0.00 0.05 0.00 94 1011.3
20260904115134 67 40 1.0 3.0 0.00 0.05 0.00 94 1011.2
20260904114900 67 40 0.0 4.0 0.00 0.05 0.00 94 1011.3
20260904114136 67 40 2.0 4.0 0.00 0.06 0.00 94 1011.2
20260904113628 67 0 1.0 2.0 0.00 0.06 0.00 94 1011.3
20260904113127 67 0 0.0 0.0 0.00 0.06 0.00 94 1011.2
20260904112626 67 0 0.0 0.0 0.00 0.06 0.00 94 1011.1
20260904112125 67 0 0.0 0.0 0.00 0.06 0.00 94 1011.1
20260904111625 67 0 0.0 0.0 0.00 0.06 0.00 95 1011.0
20260904111124 67 0 0.0 0.0 0.00 0.06 0.00 94 1011.0
20260904110624 67 0 0.0 0.0 0.00 0.06 0.00 94 1011.0
20260904110122 67 0 0.0 0.0 0.00 0.06 0.00 94 1011.1
20260904105622 67 0 0.0 0.0 0.00 0.06 0.00 94 1011.0
20260904105121 67 0 0.0 2.0 0.00 0.07 0.00 94 1011.1
20260904104621 67 0 0.0 2.0 0.00 0.07 0.00 94 1010.9
20260904104120 67 0 0.0 2.0 0.00 0.07 0.00 94 1010.9
20260904103620 67 0 0.0 1.0 0.00 0.08 0.00 94 1010.9
20260904103120 67 183 0.0 0.0 0.00 0.08 0.00 94 1010.9
20260904102619 67 183 0.0 0.0 0.00 0.08 0.00 94 1010.8
20260904102119 67 183 0.0 0.0 0.00 0.08 0.00 94 1010.8
20260904101618 67 183 0.0 0.0 0.00 0.08 0.00 94 1010.8
20260904101118 67 183 0.0 0.0 0.00 0.08 0.00 94 1010.7
20260904100615 67 183 0.0 0.0 0.00 0.08 0.00 94 1010.7
20260904100118 67 183 0.0 0.0 0.00 0.08 0.00 94 1010.8
20260904095607 67 183 0.0 0.0 0.00 0.08 0.00 94 1010.9
20260904095108 67 183 0.0 0.0 0.00 0.08 0.00 94 1010.8
20260904094834 67 183 0.0 0.0 0.00 0.08 0.00 94 1010.9
20260904094109 67 183 0.0 0.0 0.00 0.08 0.00 94 1010.8
20260904093607 67 183 0.0 0.0 0.00 0.08 0.00 94 1010.8
20260904093329 67 183 0.0 0.0 0.00 0.09 0.00 94 1010.8
20260904092559 67 183 0.0 0.0 0.00 0.09 0.00 94 1010.8
20260904092059 67 183 0.0 0.0 0.00 0.09 0.00 94 1010.7
20260904091556 67 183 0.0 0.0 0.00 0.09 0.00 94 1010.6
20260904091057 67 183 0.0 0.0 0.00 0.10 0.00 94 1010.5
20260904090548 67 183 0.0 0.0 0.00 0.11 0.00 94 1010.6
20260904090047 67 183 0.0 0.0 0.00 0.11 0.00 94 1010.7
20260904085543 67 183 0.0 0.0 0.00 0.12 0.00 94 1010.7
20260904085042 67 183 0.0 0.0 0.00 0.12 0.00 94 1010.7
20260904084805 67 183 0.0 0.0 0.00 0.12 0.00 94 1010.8
20260904084041 67 183 0.0 0.0 0.00 0.12 0.00 94 1010.7
20260904083801 67 183 0.0 0.0 0.00 0.12 0.00 94 1010.8
20260904083032 67 183 0.0 0.0 0.00 0.12 0.00 94 1010.9
20260904082524 67 183 0.0 0.0 0.00 0.12 0.00 94 1010.9
20260904082024 67 183 0.0 0.0 0.00 0.12 0.00 94 1010.7
20260904081516 67 183 0.0 0.0 0.00 0.12 0.00 94 1010.6
20260904081234 67 183 0.0 0.0 0.00 0.12 0.00 94 1010.9
20260904080508 67 183 0.0 0.0 0.00 0.12 0.00 94 1010.9
20260904080451 67 183 0.0 0.0 0.00 0.12 0.00 94 1010.9
20260904075505 67 183 0.0 0.0 0.00 0.12 0.00 94 1010.9
20260904075006 67 183 0.0 0.0 0.00 0.12 0.00 94 1011.0
20260904074506 67 183 0.0 0.0 0.00 0.12 0.00 94 1011.1
20260904073956 67 183 0.0 0.0 0.00 0.12 0.00 94 1011.1
20260904073456 67 183 0.0 0.0 0.00 0.12 0.00 94 1011.1
20260904072950 67 183 0.0 0.0 0.00 0.12 0.00 94 1011.2
20260904072448 67 183 0.0 0.0 0.00 0.12 0.00 94 1011.2
20260904071939 67 183 0.0 3.0 0.00 0.12 0.00 94 1011.2
20260904071438 67 183 0.0 3.0 0.00 0.12 0.00 94 1011.3
20260904071159 67 183 0.0 3.0 0.00 0.12 0.00 94 1011.4
20260904070436 67 183 1.0 3.0 0.00 0.12 0.00 94 1011.4
20260904065935 67 183 1.0 2.0 0.00 0.12 0.00 94 1011.5
20260904065432 67 183 1.0 2.0 0.00 0.12 0.00 94 1011.4
20260904065154 67 183 0.0 2.0 0.00 0.12 0.00 94 1011.4
20260904064703 67 183 1.0 2.0 0.00 0.12 0.00 94 1011.4
20260904063932 67 183 0.0 1.0 0.00 0.12 0.00 94 1011.5
20260904063430 67 183 0.0 1.0 0.00 0.12 0.00 94 1011.5
20260904062931 67 183 1.0 1.0 0.00 0.12 0.00 94 1011.4
20260904062429 67 183 0.0 3.0 0.00 0.12 0.00 94 1011.5
20260904061930 67 183 0.0 3.0 0.00 0.12 0.00 94 1011.5
20260904061427 67 183 1.0 4.0 0.00 0.12 0.00 94 1011.7
20260904061149 67 183 0.0 4.0 0.00 0.12 0.00 94 1011.6
20260904060427 67 183 2.0 4.0 0.00 0.12 0.00 94 1011.6
20260904055926 67 148 0.0 2.0 0.00 0.12 0.00 94 1011.7
20260904055424 67 96 1.0 3.0 0.00 0.12 0.00 94 1011.8
20260904054916 67 155 1.0 3.0 0.00 0.12 0.00 94 1011.9
20260904054414 67 79 1.0 3.0 0.00 0.12 0.00 94 1012.1
20260904053914 67 183 0.0 2.0 0.00 0.12 0.00 94 1012.0
20260904053641 67 183 0.0 2.0 0.00 0.12 0.00 94 1012.0
20260904053132 67 183 0.0 0.0 0.00 0.12 0.00 94 1012.1
20260904052405 67 183 0.0 0.0 0.00 0.12 0.00 94 1012.1
20260904051903 67 183 0.0 1.0 0.00 0.12 0.00 93 1012.1
20260904051404 67 183 0.0 1.0 0.00 0.12 0.00 93 1012.3
20260904050903 66 183 0.0 3.0 0.00 0.12 0.00 94 1012.4
20260904050400 66 183 1.0 3.0 0.00 0.12 0.00 94 1012.3
20260904045900 65 71 1.0 2.0 0.00 0.12 0.00 93 1012.3
20260904045359 65 71 0.0 0.0 0.00 0.12 0.00 93 1012.4
20260904044859 64 71 0.0 0.0 0.00 0.12 0.00 93 1012.4
20260904044344 64 71 0.0 0.0 0.00 0.12 0.00 93 1012.5
20260904044113 64 71 0.0 0.0 0.00 0.12 0.00 93 1012.5
20260904043822 64 71 0.0 0.0 0.00 0.12 0.00 93 1012.6
20260904042828 64 71 0.0 0.0 0.00 0.12 0.00 93 1012.6
20260904042548 64 71 0.0 0.0 0.00 0.12 0.00 93 1012.5
20260904041827 64 71 0.0 1.0 0.00 0.12 0.00 93 1012.6
20260904041318 64 71 0.0 1.0 0.00 0.12 0.00 93 1012.6
20260904040818 64 71 0.0 1.0 0.00 0.12 0.00 93 1012.6
20260904040810 64 71 0.0 1.0 0.00 0.12 0.00 93 1012.6
20260904035818 64 71 0.0 0.0 0.00 0.12 0.12 93 1012.7
20260904035305 64 71 0.0 0.0 0.00 0.12 0.12 93 1012.7
20260904035027 64 71 0.0 0.0 0.00 0.12 0.12 93 1012.7
20260904034301 65 71 0.0 0.0 0.00 0.12 0.12 93 1012.8
20260904033759 65 71 0.0 1.0 0.00 0.12 0.12 93 1012.8
20260904033252 65 71 0.0 1.0 0.00 0.12 0.12 93 1012.8
20260904032749 65 71 0.0 0.0 0.00 0.12 0.12 93 1012.7
20260904032519 65 71 0.0 0.0 0.00 0.12 0.12 93 1012.7
20260904031742 65 71 0.0 0.0 0.00 0.12 0.12 93 1012.8
20260904031233 65 71 0.0 0.0 0.00 0.12 0.12 93 1012.8
20260904030733 65 71 0.0 0.0 0.00 0.12 0.12 93 1012.8
20260904030232 65 71 0.0 0.0 0.00 0.12 0.12 93 1012.8
20260904025729 65 71 0.0 0.0 0.00 0.12 0.12 93 1012.9
20260904025229 65 71 0.0 0.0 0.00 0.12 0.12 93 1013.0
20260904024726 65 71 0.0 0.0 0.00 0.12 0.12 92 1013.1
20260904024225 66 71 0.0 0.0 0.00 0.12 0.12 92 1013.2
20260904023727 65 71 0.0 0.0 0.00 0.12 0.12 92 1013.1
20260904023224 65 71 0.0 0.0 0.00 0.12 0.12 92 1013.3
20260904022946 65 71 0.0 0.0 0.00 0.12 0.12 92 1013.2
20260904022224 65 71 0.0 0.0 0.00 0.12 0.12 92 1013.4
20260904021723 66 71 0.0 0.0 0.00 0.12 0.12 92 1013.4
20260904021216 66 71 0.0 0.0 0.00 0.12 0.12 92 1013.5
20260904020708 66 71 0.0 0.0 0.00 0.12 0.12 92 1013.4
20260904020208 65 71 0.0 0.0 0.00 0.12 0.12 92 1013.3
20260904015706 65 71 0.0 0.0 0.00 0.12 0.12 92 1013.3
20260904015428 65 71 0.0 0.0 0.00 0.12 0.12 92 1013.3
20260904014705 65 71 0.0 0.0 0.00 0.12 0.12 92 1013.4
20260904014204 65 71 0.0 0.0 0.00 0.12 0.12 92 1013.4
20260904013705 65 71 0.0 0.0 0.00 0.12 0.12 92 1013.5
20260904013157 65 71 0.0 0.0 0.00 0.12 0.12 92 1013.6
20260904012912 65 71 0.0 0.0 0.00 0.12 0.12 92 1013.6
20260904012148 65 71 0.0 0.0 0.00 0.12 0.12 92 1013.6
20260904011641 66 71 0.0 0.0 0.00 0.12 0.12 92 1013.7
20260904011135 66 71 0.0 0.0 0.00 0.12 0.12 91 1013.5
20260904010634 66 71 0.0 0.0 0.00 0.12 0.12 92 1013.6
20260904010127 66 71 0.0 0.0 0.00 0.12 0.12 91 1013.4
20260904005625 65 71 0.0 0.0 0.00 0.12 0.12 91 1013.2
20260904005125 66 71 0.0 0.0 0.00 0.12 0.12 91 1013.3
20260904004626 66 71 0.0 0.0 0.00 0.12 0.12 91 1013.3
20260904004124 66 71 0.0 0.0 0.00 0.12 0.12 91 1013.0
20260904003616 66 71 0.0 0.0 0.00 0.12 0.12 91 1013.0
20260904003344 66 71 0.0 0.0 0.00 0.12 0.12 91 1013.2
20260904002615 66 71 0.0 0.0 0.00 0.12 0.12 91 1013.1
20260904002115 66 71 0.0 0.0 0.00 0.12 0.12 91 1013.0
20260904001829 66 71 0.0 0.0 0.00 0.12 0.12 91 1013.0
20260904001104 67 71 0.0 0.0 0.00 0.12 0.12 90 1012.8
20260904000609 67 71 0.0 0.0 0.00 0.12 0.12 90 1012.9
20260904000104 67 71 0.0 0.0 0.00 0.12 0.12 90 1013.0
20260903235606 67 71 0.0 0.0 0.00 0.12 0.12 90 1012.8
20260903235103 67 71 0.0 0.0 0.00 0.12 0.12 90 1012.9
20260903234602 67 71 0.0 0.0 0.00 0.12 0.12 90 1012.9
20260903234102 67 71 0.0 0.0 0.00 0.12 0.12 90 1012.8
20260903233555 68 71 0.0 0.0 0.00 0.12 0.12 90 1012.9
20260903233054 68 71 0.0 0.0 0.00 0.12 0.12 89 1013.0
20260903232552 68 71 0.0 0.0 0.00 0.12 0.12 89 1013.0
20260903232540 68 71 0.0 0.0 0.00 0.12 0.12 89 1012.9
20260903231552 68 71 0.0 0.0 0.00 0.12 0.12 89 1012.7
20260903231541 69 71 0.0 0.0 0.00 0.12 0.12 89 1012.7
20260903230550 69 71 0.0 0.0 0.00 0.12 0.12 88 1012.8
20260903230046 69 71 0.0 0.0 0.00 0.12 0.12 88 1012.8
20260903225547 69 71 0.0 0.0 0.00 0.12 0.12 88 1012.8
20260903225024 69 71 0.0 0.0 0.00 0.12 0.12 88 1012.9
20260903224526 69 71 0.0 0.0 0.00 0.12 0.12 88 1013.0
20260903224021 69 71 0.0 0.0 0.00 0.12 0.12 88 1013.1
20260903223742 69 71 0.0 0.0 0.00 0.12 0.12 88 1013.3
20260903223021 69 71 0.0 1.0 0.00 0.12 0.12 88 1013.2
20260903222521 69 71 0.0 1.0 0.00 0.12 0.12 88 1013.2
20260903222021 70 71 0.0 0.0 0.00 0.12 0.12 87 1013.2
20260903221521 70 71 0.0 3.0 0.00 0.12 0.12 87 1013.3
20260903221226 70 71 1.0 3.0 0.00 0.12 0.12 87 1013.4
20260903220510 70 71 0.0 2.0 0.00 0.12 0.12 87 1013.4
20260903220009 70 71 0.0 3.0 0.00 0.12 0.12 87 1013.2
20260903215733 70 71 2.0 3.0 0.00 0.12 0.12 87 1013.1
20260903214958 70 130 0.0 0.0 0.00 0.12 0.12 87 1013.2
20260903214458 70 130 0.0 1.0 0.00 0.12 0.12 87 1013.0
20260903214000 70 130 0.0 1.0 0.00 0.12 0.12 87 1013.0